FW0173 Weather Reports


Display with metric or nautical units.
time (UTC)temp
F
wind
direction
speed
MPH
gust
MPH
rain 1hr
in
rain 24hr
in
rain mn
in
humidity
%
barometer
mb
20260507010027 56 23 0.0 1.0 0.00 0.01 0.01 64 1026.2
20260507004535 57 10 0.0 1.0 0.00 0.01 0.01 60 1026.0
20260507003025 58 19 1.0 5.0 0.00 0.01 0.01 58 1026.0
20260507001524 58 11 1.0 5.0 0.00 0.01 0.01 56 1025.8
20260507000024 59 20 0.0 5.0 0.00 0.01 0.01 57 1025.8
20260506234523 59 23 2.0 7.0 0.00 0.01 0.01 55 1025.7
20260506233024 60 23 2.0 7.0 0.00 0.01 0.01 54 1025.5
20260506231522 60 26 2.0 9.0 0.00 0.01 0.01 53 1025.5
20260506230020 60 39 4.0 9.0 0.00 0.01 0.01 54 1025.2
20260506224521 60 26 3.0 9.0 0.00 0.01 0.01 56 1024.8
20260506223018 60 20 5.0 9.0 0.00 0.01 0.01 56 1024.6
20260506221517 60 39 3.0 9.0 0.00 0.01 0.01 57 1024.6
20260506220030 59 20 2.0 6.0 0.00 0.01 0.01 59 1024.8
20260506214516 59 34 3.0 8.0 0.00 0.01 0.01 59 1025.0
20260506213015 59 24 2.0 6.0 0.00 0.01 0.01 61 1025.0
20260506211518 59 6 5.0 11.0 0.00 0.01 0.01 60 1025.1
20260506210016 59 70 1.0 6.0 0.00 0.01 0.01 63 1025.3
20260506204514 59 16 3.0 8.0 0.00 0.01 0.01 62 1025.5
20260506203019 59 4 2.0 6.0 0.00 0.01 0.01 62 1025.8
20260506201512 59 28 2.0 12.0 0.00 0.01 0.01 62 1025.8
20260506200015 58 37 2.0 7.0 0.00 0.01 0.01 63 1026.0
20260506194511 59 39 1.0 7.0 0.00 0.01 0.01 60 1026.2
20260506193009 59 356 4.0 11.0 0.00 0.01 0.01 59 1026.2
20260506191506 59 44 3.0 8.0 0.00 0.01 0.01 61 1026.1
20260506190006 58 39 1.0 6.0 0.00 0.01 0.01 62 1026.3
20260506184502 57 18 2.0 7.0 0.00 0.01 0.01 65 1026.3
20260506183004 57 323 1.0 8.0 0.00 0.01 0.01 65 1026.6
20260506181603 56 9 1.0 4.0 0.00 0.01 0.01 66 1027.1
20260506180116 56 26 0.0 3.0 0.00 0.01 0.01 68 1027.5
20260506180001 56 27 1.0 4.0 0.00 0.01 0.01 67 1027.5
20260506174600 56 29 2.0 4.0 0.00 0.01 0.01 65 1027.7
20260506173131 57 53 1.0 5.0 0.00 0.01 0.01 65 1027.9
20260506171554 55 47 1.0 6.0 0.00 0.01 0.01 66 1027.9
20260506170052 55 63 2.0 5.0 0.00 0.01 0.01 66 1027.9
20260506164549 54 30 2.0 10.0 0.00 0.01 0.01 67 1027.5
20260506163053 54 66 4.0 8.0 0.00 0.01 0.01 68 1027.4
20260506161553 54 31 3.0 8.0 0.00 0.01 0.01 69 1026.9
20260506160040 53 7 4.0 9.0 0.00 0.01 0.01 71 1026.7
20260506154535 51 46 2.0 9.0 0.00 0.01 0.01 74 1026.7
20260506153033 51 2 3.0 9.0 0.00 0.01 0.01 75 1026.7
20260506151530 50 14 2.0 9.0 0.00 0.01 0.01 78 1026.6
20260506150028 49 36 3.0 8.0 0.00 0.01 0.01 79 1026.6
20260506144527 49 51 2.0 8.0 0.00 0.01 0.01 78 1026.7
20260506143027 49 22 5.0 13.0 0.00 0.01 0.01 78 1026.6
20260506141531 48 8 5.0 11.0 0.00 0.01 0.01 80 1026.4
20260506140023 48 31 3.0 11.0 0.00 0.01 0.01 81 1026.7
20260506134520 48 26 4.0 9.0 0.00 0.01 0.01 82 1026.6
20260506133018 47 359 2.0 8.0 0.00 0.01 0.01 85 1026.5
20260506131513 47 42 2.0 5.0 0.00 0.01 0.01 85 1026.3
20260506130016 46 25 1.0 13.0 0.00 0.01 0.01 86 1026.3
20260506124510 46 37 2.0 9.0 0.00 0.01 0.01 87 1025.9
20260506123008 46 32 2.0 8.0 0.00 0.01 0.01 88 1026.2
20260506121506 45 15 2.0 7.0 0.00 0.01 0.01 88 1025.8
20260506120011 45 27 3.0 7.0 0.00 0.01 0.01 88 1025.6
20260506114504 45 51 2.0 6.0 0.00 0.01 0.01 87 1025.5
20260506113003 45 27 2.0 7.0 0.00 0.01 0.01 88 1025.5
20260506111601 45 347 1.0 5.0 0.00 0.01 0.01 88 1025.3
20260506110057 45 30 1.0 5.0 0.00 0.01 0.01 87 1024.8
20260506104559 45 228 0.0 3.0 0.00 0.02 0.01 87 1024.5
20260506103052 46 33 1.0 4.0 0.00 0.02 0.01 86 1024.1
20260506101550 46 27 1.0 4.0 0.00 0.02 0.01 86 1023.7
20260506100046 46 32 2.0 5.0 0.00 0.02 0.01 86 1022.9
20260506094544 45 31 2.0 6.0 0.00 0.05 0.01 86 1022.8
20260506093044 46 1 3.0 6.0 0.00 0.05 0.01 86 1022.4
20260506091543 46 100 1.0 6.0 0.00 0.05 0.01 87 1022.4
20260506090041 46 43 3.0 6.0 0.00 0.05 0.01 87 1022.4
20260506084539 46 31 2.0 6.0 0.00 0.43 0.01 88 1022.5
20260506083038 46 30 0.0 5.0 0.00 0.43 0.01 88 1022.6
20260506081535 46 15 0.0 4.0 0.00 0.43 0.01 89 1022.1
20260506073031 45 13 0.0 6.0 0.01 1.12 0.01 92 1021.6
20260506071530 45 52 4.0 10.0 0.01 1.12 0.01 92 1021.4
20260506061526 45 32 4.0 8.0 0.00 1.29 0.00 94 1021.7
20260506044510 46 37 2.0 6.0 0.00 1.32 1.32 92 1021.4
20260506043005 46 341 4.0 11.0 0.00 1.32 1.32 92 1021.1
20260506041503 46 16 3.0 8.0 0.00 1.32 1.32 93 1021.3
20260506040003 46 11 2.0 6.0 0.00 1.32 1.32 92 1021.1
20260506034604 47 63 4.0 11.0 0.00 1.32 1.32 90 1020.8
20260506033118 47 94 4.0 11.0 0.00 1.32 1.32 89 1020.6
20260506031554 47 354 5.0 10.0 0.00 1.32 1.32 90 1020.2
20260506030059 47 55 2.0 6.0 0.00 1.32 1.32 92 1019.8
20260506024602 47 22 2.0 11.0 0.00 1.32 1.32 92 1019.4
20260506023047 47 25 3.0 8.0 0.00 1.32 1.32 92 1019.0
20260506021555 47 23 3.0 8.0 0.00 1.32 1.32 91 1018.8
20260506020045 47 33 2.0 7.0 0.00 1.32 1.32 91 1018.8
20260506014544 47 18 2.0 6.0 0.00 1.32 1.32 91 1018.9
20260506013046 47 357 2.0 9.0 0.00 1.32 1.32 91 1018.7
20260506011607 47 21 2.0 12.0 0.00 1.32 1.32 92 1018.0